sat.trackr.live / text

‹ back to catalog

STARLINK-36910

NORAD 68005 · 2026-039V

PAYLOAD ACTIVE UNKNOWN

§ Identity

Operator
Country
US
Launch date
2026-02-27
Launch site
AFETR
Launch vehicle
Mass (kg)
RCS (m²)

Purposes: comms

External: N2YO · Heavens-Above · Gunter

§ Orbital elements

Epoch: 2026-09-18T20:40:33.582720Z

Period
94.27 min
Inclination
43.0003°
Eccentricity
0.0001563
Mean motion
15.27577420 rev/d
Perigee alt
482.0 km
Apogee alt
484.1 km
Semi-major
6,861.2 km
B*
3.7377e-4
RAAN
38.2430°
Arg perigee
260.8513°
Mean anomaly
99.2162°
Rev number
3,124

§ Raw data

STARLINK-369101 68005U 26039V   26261.86149980  .00010036  00000+0  37377-3 0  99902 68005  43.0003  38.2430 0001563 260.8513  99.2162 15.27577420 31240

JSON: /api/v1/satellites/68005 · /tle

For live sub-satellite position, see the globe view (requires WebGL).

§ Visibility from observer

Set your observer location to see the next 7 days of passes ≥ 10°. The values pass through the URL so the page stays shareable.

No JS? Fill the form by hand. The geolocation button needs JavaScript.